Location: Ach
(48.3419°N, 14.0936°E)
Time: 01:42:08
(UTC+00:00)

Daily predictions for brighter satellites

Satellite Brightness Start Highest point End
(mag) Time Altitude Azimuth Time Altitude Azimuth Time Altitude Azimuth
CENTAUR R/B 4.3 02:10:28 33° NNE 02:10:28 33° NNE 02:17:12 10° E
Cosmos 2344 4.1 02:59:55 49° SE 03:00:55 52° ESE 03:08:38 10° NE
Lacrosse 5 rocket 4.3 03:08:33 15° NE 03:08:33 15° NE 03:09:25 10° NE
Cosmos 2263 Rocket 3.8 03:18:49 27° NNE 03:20:19 30° NE 03:25:16 10° ESE
CZ-2C R/B 4.4 03:26:08 10° NNE 03:27:49 22° NNE 03:27:49 22° NNE
NOSS 3-2 (C) 4.2 03:31:22 48° NNW 03:33:31 66° NE 03:41:46 10° SE
Cosmos 2327 Rocket 4.5 03:34:31 74° SE 03:34:31 74° SE 03:40:12 10° SSE
Nadezhda 1 Rocket 4.1 03:33:15 34° SSE 03:35:57 67° E 03:41:59 10° NNE
ATLAS 3B R/B 3.5 03:36:59 33° N 03:39:15 44° NE 03:45:46 10° ESE
Cosmos 2278 3.9 03:42:07 67° SE 03:42:27 69° ESE 03:48:08 10° NNE
Cosmos 1538 Rocket 4.3 03:46:11 60° SE 03:46:43 64° ESE 03:51:58 10° NNE
CZ-3 R/B 4.3 03:41:00 26° SW 03:48:23 32° SSW 03:56:33 10° SE
Cosmos 1758 Rocket 4.4 03:49:50 48° E 03:49:50 48° E 03:53:47 10° SSE
Cosmos 2369 3.8 03:52:45 68° N 03:52:45 68° N 03:57:50 10° NNE
NOSS 3-2 (A) 3.9 03:52:25 55° NW 03:54:22 79° SW 04:02:44 10° SSE
USA 215 3.2 03:49:04 10° ESE 03:55:37 85° NNE 03:57:08 57° NW
Cosmos 1726 4.1 03:53:09 10° SSE 03:56:18 27° E 03:59:28 10° NNE
CENTAUR R/B 3.2 03:57:40 33° NNW 04:01:47 75° NE 04:10:29 10° SE
Okean O Rocket 3.8 04:01:46 10° NE 04:05:29 26° E 04:09:11 10° SSE
Cosmos 1980 Rocket 2.2 04:05:29 36° SSW 04:07:55 80° ESE 04:13:37 10° NNE
STARLINK-45 4.4 04:08:20 47° SE 04:08:20 47° SE 04:12:00 10° ENE
STARLINK-70 4.3 04:09:45 46° SE 04:09:45 46° SE 04:13:31 10° ENE
STARLINK-76 4.3 04:11:10 46° SE 04:11:11 46° SE 04:15:04 10° ENE
Cosmos 2154 Rocket 3.9 04:06:02 10° NNW 04:12:10 64° W 04:18:16 10° S
STARLINK-61 4.0 04:12:49 58° E 04:12:49 58° E 04:16:11 10° ENE
STARLINK 4.3 04:12:47 47° SSE 04:12:51 47° SE 04:16:44 10° ENE
STARLINK-75 4.1 04:13:58 51° ESE 04:13:58 51° ESE 04:17:22 10° ENE
Cosmos 1825 Rocket 3.6 04:13:29 63° NNE 04:14:06 77° E 04:18:26 10° SSE
STARLINK-32 4.2 04:14:22 48° SSE 04:14:29 48° SE 04:18:23 10° ENE
Cosmos 1697 Rocket 2.7 04:15:14 55° NW 04:15:14 55° NW 04:20:32 10° NNE
STARLINK-40 4.2 04:15:59 49° SSE 04:16:10 49° SE 04:20:04 10° ENE
SJ-12 4.3 04:12:14 10° NNE 04:16:17 62° E 04:20:19 10° S
STARLINK-44 4.1 04:17:32 50° SSE 04:17:47 51° SE 04:21:42 10° ENE
Abrixas rocket 4.2 04:19:21 24° SE 04:19:21 24° SE 04:20:45 10° ESE
STARLINK-37 4.0 04:19:18 53° SSE 04:19:33 54° SE 04:23:30 10° ENE
SL-4 R/B 3.5 04:22:06 22° SSE 04:22:06 22° SSE 04:23:41 10° SSE
STARLINK-36 4.0 04:20:44 51° SSE 04:21:05 53° SE 04:25:01 10° ENE
STARLINK-41 3.9 04:21:02 53° SSE 04:21:08 53° SE 04:24:52 10° ENE
STARLINK-68 3.9 04:22:35 57° S 04:22:54 59° SSE 04:26:53 10° ENE
ATLAS 2AS CENTAUR R/B 3.4 04:16:05 10° SSW 04:23:56 65° ESE 04:31:49 10° NE
STARLINK-63 3.9 04:24:03 55° S 04:24:28 59° SSE 04:28:26 10° ENE
STARLINK-29 4.1 04:25:44 42° NNE 04:25:44 42° NNE 04:28:47 10° E
ALOS 2.4 04:20:51 10° NNE 04:25:33 73° ESE 04:30:12 10° S
EXPRESS MD2 4.0 04:26:43 36° ENE 04:26:43 36° ENE 04:28:13 10° ENE
STARLINK-35 3.9 04:25:29 52° S 04:26:01 58° SSE 04:29:59 10° ENE
STARLINK-52 4.1 04:26:40 40° NNE 04:26:40 40° NNE 04:29:40 10° E
Cosmos 1295 Rocket 4.4 04:21:01 10° NNW 04:27:09 65° W 04:33:11 10° S
STARLINK 3.8 04:27:00 52° S 04:27:23 55° SSE 04:31:07 10° ENE
STARLINK-51 3.9 04:27:05 52° S 04:27:41 59° SSE 04:31:39 10° ENE
Genesis I 3.5 04:28:11 55° N 04:28:42 62° NE 04:32:30 10° SE
STARLINK-30 3.9 04:28:39 52° SSW 04:29:19 61° SSE 04:33:17 10° ENE
Lacrosse 5 4.2 04:26:54 10° S 04:30:50 23° SE 04:34:47 10° ENE
STARLINK-72 3.8 04:30:16 52° SSW 04:30:59 62° SSE 04:34:58 10° ENE
USA 238 DEB 4.1 04:29:55 38° W 04:31:57 47° WSW 04:38:57 10° S
USA 238 4.1 04:30:00 38° WNW 04:32:04 47° WSW 04:39:04 10° S
STARLINK-33 3.3 04:32:13 68° SSE 04:32:18 69° SSE 04:35:53 10° ENE
STARLINK-50 3.8 04:31:50 51° SSW 04:32:37 64° SSE 04:36:36 10° ENE
CZ-4B R/B 4.4 04:28:52 10° N 04:30:59 26° NNW 04:30:59 26° NNW
Cosmos 2227 4.1 04:31:36 32° NW 04:34:16 73° WSW 04:39:52 10° SSE
STARLINK-59 3.7 04:33:34 52° SSW 04:34:21 68° SSE 04:38:22 10° ENE
Cosmos 1606 Rocket 3.5 04:30:14 10° S 04:34:41 86° E 04:39:07 10° N
STARLINK-66 3.2 04:34:46 71° S 04:34:56 73° SSE 04:38:31 10° ENE
COSMO-SKYMED 1 2.6 04:31:33 10° S 04:35:40 54° WSW 04:35:40 54° WSW
STARLINK-56 3.7 04:35:02 49° SSW 04:35:55 67° SSE 04:39:56 10° ENE
Cosmos 1726 Rocket 3.8 04:31:35 10° S 04:36:00 72° E 04:40:25 10° NNE
Cosmos 2366 rocket 4.3 04:30:44 10° N 04:37:06 71° ENE 04:43:26 10° SSE
STARLINK-55 3.2 04:37:13 72° SSW 04:37:26 77° SSE 04:41:01 10° ENE
Starlink (trailer) 3.7 04:36:37 48° SSW 04:37:34 69° SSE 04:41:35 10° ENE
Cosmos 1703 3.4 04:35:28 17° N 04:38:26 73° E 04:42:22 10° SSE
STARLINK-38 3.7 04:38:14 47° SW 04:39:14 71° SSE 04:43:15 10° ENE
STARLINK-28 3.1 04:39:14 76° SSW 04:39:27 83° SSE 04:43:01 10° ENE
Helios 1A Rocket 4.3 04:36:23 10° NNE 04:40:18 40° E 04:44:12 10° S
STARLINK-65 3.6 04:39:48 46° SW 04:40:53 72° SSE 04:44:54 10° ENE
Meteor 1-21 Rocket 4.4 04:36:34 12° NNW 04:41:53 52° W 04:47:35 10° SSW
STARLINK-53 3.6 04:41:32 46° SW 04:42:38 76° SSE 04:46:40 10° ENE
Cosmos 962 Rocket 4.5 04:37:26 10° NNW 04:43:36 59° W 04:49:47 10° S
STARLINK-80 3.9 04:43:57 43° NNW 04:44:11 44° N 04:47:51 10° ENE
Lacrosse 5 rocket 2.9 04:44:11 24° NNW 04:45:17 27° N 04:49:08 10° ENE
NOSS 2-2 (D) 3.8 04:48:16 39° NW 04:48:16 39° NW 04:52:19 10° NNE
Cosmos 1624 Rocket 4.3 04:45:53 10° NNW 04:51:04 68° ENE 04:56:15 10° SSE
CZ-4B DEB 4.1 04:46:15 10° NNE 04:51:50 83° WNW 04:57:22 10° SSW
Cosmos 2228 2.9 04:50:58 10° SSW 04:55:20 65° W 04:59:44 10° N
STARLINK-58 3.5 04:54:10 35° WSW 04:55:47 88° SSE 04:59:50 10° ENE
COSMOS 2455 2.8 04:51:25 17° SW 04:56:07 61° NW 05:02:06 10° NNE
STARLINK-62 3.4 04:55:51 34° WSW 04:57:30 89° NNW 05:01:33 10° ENE
Cosmos 2322 Rocket 3.0 04:52:33 10° S 04:58:03 55° ESE 05:03:37 10° NE
STARLINK-48 3.9 05:00:06 36° NW 05:01:09 46° N 05:04:55 10° ENE
Cosmos 1953 3.5 05:02:55 25° NW 05:02:55 25° NW 05:05:15 10° N
METEOR-M 4.1 04:58:47 10° N 05:04:04 59° WNW 05:09:17 10° SSW
Cosmos 2263 Rocket 2.3 05:00:32 19° NW 05:04:34 56° WSW 05:10:05 10° S
Cosmos 2056 Rocket 3.6 05:00:45 10° NNW 05:06:13 86° ENE 05:11:39 10° SSE
STARLINK-42 3.2 05:05:32 31° WSW 05:07:14 78° NNW 05:11:00 10° ENE
STARLINK-60 3.0 05:06:16 39° WNW 05:07:23 86° SSW 05:10:46 10° ESE
PSLV R/B 4.4 05:04:12 10° N 05:07:37 32° WNW 05:07:52 31° WNW
STARLINK 1014 4.4 05:06:06 11° SSW 05:08:41 32° SE 05:11:23 10° ENE
Orbus 7S? 4.0 05:07:24 30° W 05:08:49 47° SW 05:15:00 10° SSE
CZ-2C R/B 4.2 05:05:33 10° NNW 05:07:13 15° NW 05:07:13 15° NW
Cosmos 923 Rocket 4.0 05:07:12 10° SW 05:12:23 58° WNW 05:17:40 10° NNE
SL-8 Rocket 4.1 05:06:44 10° NNW 05:12:45 53° W 05:18:41 10° SSW
STARLINK-64 3.3 05:11:17 26° WSW 05:13:17 74° NNW 05:17:06 10° ENE
Cosmos 2181 Rocket 4.0 05:07:26 10° SSW 05:13:34 61° WNW 05:19:51 10° N
Cosmos 2344 4.0 05:09:57 18° W 05:15:29 47° NNW 05:23:55 10° NE
Cosmos 1844 Rocket 3.5 05:12:01 10° NNW 05:17:30 49° NE 05:22:57 10° SE
STARLINK-34 3.5 05:16:26 22° WSW 05:18:58 72° NNW 05:22:59 10° ENE
Meteor 2-10 4.3 05:14:22 10° SSW 05:19:41 48° WNW 05:24:52 10° N
STARLINK-24 3.5 05:18:01 21° WSW 05:20:36 71° NNW 05:24:38 10° ENE
STARLINK-81 3.5 05:19:20 20° WSW 05:22:05 73° NNW 05:26:07 10° ENE
Cosmos 1953 Rocket 4.3 05:18:42 11° NNW 05:22:29 32° W 05:26:23 10° SSW
SMAP 3.5 05:19:07 10° NNE 05:23:46 64° ESE 05:28:22 10° S
STARLINK-54 3.5 05:21:11 20° WSW 05:23:55 69° NNW 05:27:57 10° ENE
STARLINK-77 3.5 05:22:31 18° WSW 05:25:23 71° NNW 05:29:25 10° ENE
STARLINK-25 3.5 05:24:08 18° WSW 05:27:05 69° NNW 05:31:06 10° ENE
STARLINK-71 3.6 05:26:00 18° W 05:28:55 65° NNW 05:32:57 10° ENE
STARLINK 1033 4.3 05:25:41 10° SW 05:29:11 46° SE 05:32:42 10° ENE
RESURS DK-1 3.2 05:25:35 10° S 05:29:37 53° ESE 05:33:40 10° NE
ATLAS 3B R/B 2.8 05:24:15 13° NW 05:30:10 57° WSW 05:36:54 10° SSE
STARLINK-79 3.5 05:27:16 17° WSW 05:30:20 67° NNW 05:34:22 10° ENE
Cosmos 1726 3.2 05:28:34 10° SW 05:31:31 23° WNW 05:34:29 10° NNW
STARLINK-78 3.6 05:28:54 16° WSW 05:32:02 66° NNW 05:36:03 10° ENE
STARLINK-57 3.6 05:30:39 16° W 05:33:49 63° NNW 05:37:50 10° ENE
Cosmos 1812 Rocket 4.3 05:29:51 10° S 05:34:08 56° E 05:38:27 10° NNE
STARLINK-49 3.6 05:32:03 15° W 05:35:19 64° NNW 05:39:21 10° ENE
STARLINK-27 3.6 05:33:39 14° W 05:37:00 63° NNW 05:41:01 10° ENE
SL-16 R/B 2.2 05:32:29 10° SW 05:38:08 69° WNW 05:43:49 10° NNE
STARLINK-74 3.6 05:35:15 14° W 05:38:39 62° NNW 05:42:40 10° ENE
USA 215 4.0 05:33:14 10° SSE 05:39:05 35° SW 05:44:31 12° WNW
NOSS 3-4 (A) 3.4 05:33:45 10° SW 05:39:44 67° NW 05:46:12 10° NE
NOSS 3-4 (C) 3.4 05:33:50 10° SW 05:39:50 67° NW 05:46:18 10° NE
STARLINK-39 3.6 05:36:50 13° W 05:40:19 61° NNW 05:44:19 10° ENE
FENGYUN 3A 4.4 05:36:53 10° N 05:41:35 31° WNW 05:46:16 10° WSW
Okean O Rocket 2.1 05:37:48 10° N 05:41:57 38° WNW 05:46:03 10° SW
STARLINK 3.6 05:38:28 13° W 05:42:00 60° NNW 05:46:00 10° ENE
FALCON 9 DEB 3.2 05:40:35 16° WNW 05:43:19 73° SSW 05:46:49 10° SE
STARLINK-69 3.7 05:40:18 13° W 05:43:51 57° NNW 05:47:50 10° ENE
Okean-O 3.7 05:39:43 10° NNE 05:44:03 49° E 05:48:20 10° S
STARLINK 1040 2.8 05:41:21 10° SW 05:44:11 71° SSE 05:47:02 10° ENE
H-2A R/B 2.7 05:40:25 10° N 05:44:19 63° WNW 05:48:09 10° SSW
STARLINK-21 3.7 05:41:41 12° W 05:45:21 58° NNW 05:49:21 10° ENE
Cosmos 2360 Rocket 2.7 05:39:57 10° SSW 05:45:33 66° ESE 05:51:11 10° NNE
Cosmos 1821 Rocket 4.0 05:39:28 10° N 05:45:42 88° W 05:51:49 10° S
CZ-4B R/B 3.4 05:41:04 10° N 05:46:24 47° WNW 05:51:35 10° SW
STARLINK-43 4.0 05:44:11 14° WNW 05:47:12 44° N 05:50:47 10° E
STARLINK-45 3.7 05:43:35 12° W 05:47:15 55° NNW 05:51:14 10° ENE
Nadezhda 3 Rocket 4.1 05:41:25 10° S 05:47:35 87° E 05:53:49 10° N
STARLINK-26 3.9 05:44:58 14° WNW 05:47:38 38° N 05:50:56 10° ENE
ADEOS Rocket 3.0 05:42:46 10° S 05:48:03 48° W 05:53:35 10° NNW
BREEZE M DEB (TANK) 3.2 05:45:12 10° WSW 05:48:05 89° SSE 05:55:45 10° ENE
Cosmos 1452 Rocket 3.7 05:43:27 10° NNW 05:48:45 76° ENE 05:53:59 10° SSE
STARLINK-70 3.7 05:45:01 11° W 05:48:46 55° NNW 05:52:45 10° ENE
BREEZE M DEB (TANK) 3.7 05:36:21 12° WNW 05:48:55 74° SSW 05:52:46 10° ESE
STARLINK-76 3.7 05:46:27 11° W 05:50:19 56° NNW 05:54:18 10° ENE
STARLINK-61 3.9 05:47:41 12° W 05:51:09 46° N 05:54:58 10° ENE
STARLINK 1044 3.7 05:47:42 10° SW 05:51:22 67° SSE 05:55:02 10° ENE
Envisat 3.4 05:46:27 10° NNE 05:51:33 72° ESE 05:56:37 10° S
Cosmos 1300 2.6 05:47:52 10° SSW 05:51:41 71° WNW 05:55:31 10° N
Cosmos 1844 4.0 05:46:11 10° NNW 05:51:46 69° ENE 05:57:18 10° SE
STARLINK 3.7 05:48:03 10° W 05:51:59 55° NNW 05:55:58 10° ENE
STARLINK-75 3.7 05:48:31 11° W 05:52:04 49° NNW 05:55:49 10° ENE
CENTAUR R/B 3.8 05:45:02 10° NW 05:52:16 36° WSW 05:59:57 10° S
Cosmos 1980 Rocket 3.3 05:48:06 10° W 05:52:36 23° NW 05:57:06 10° N
NOAA 12 4.4 05:47:38 10° NNE 05:52:58 75° ESE 05:58:15 10° S
Abrixas rocket 4.3 05:51:31 10° WSW 05:53:05 13° SW 05:54:37 10° S
IRS-1C Rocket 4.1 05:48:17 10° NNE 05:53:36 85° WNW 05:58:53 10° SSW
STARLINK-32 3.8 05:49:40 10° W 05:53:38 54° NNW 05:57:36 10° ENE
CZ-2C R/B 4.0 05:48:49 10° SE 05:53:41 39° ENE 05:58:40 10° N
STARLINK-40 3.8 05:51:22 10° W 05:55:19 54° NNW 05:59:18 10° ENE
STARLINK-44 3.8 05:53:00 10° W 05:56:57 53° NNW 06:00:55 10° ENE
Alouette 2 Rocket 3.3 05:53:17 10° SSW 05:57:49 82° WNW 06:01:27 10° NNE
Cosmos 2058 Rocket 3.9 05:54:25 10° SW 05:58:11 27° WNW 06:01:56 10° NNW
STARLINK-37 3.8 05:54:49 10° W 05:58:45 51° NNW 06:02:42 10° ENE
STARLINK-41 3.7 05:55:47 10° W 05:59:31 50° NNW 06:03:15 10° ENE
Cosmos 1908 4.5 05:56:54 10° WSW 05:59:57 21° WNW 06:03:00 10° NNW
Cosmos 158 Rocket 4.1 05:55:35 10° SW 06:00:15 44° WNW 06:05:01 10° NNE
Cosmos 1697 Rocket 4.3 05:57:12 10° WNW 06:00:16 15° NW 06:03:23 10° N
STARLINK-36 3.8 05:56:20 10° W 06:00:17 52° NNW 06:04:14 10° ENE
Cosmos 1680 Rocket 4.2 05:56:40 10° WSW 06:01:26 33° NW 06:06:14 10° N
Cosmos 371 Rocket 4.3 05:57:02 10° NNW 06:01:44 46° ENE 06:06:23 10° SE
STARLINK-68 3.9 05:58:12 10° W 06:02:08 50° NNW 06:06:05 10° ENE
ALOS 3.7 05:59:29 10° NNW 06:02:26 17° WNW 06:05:21 10° W
STARLINK-29 3.4 05:59:14 10° WNW 06:02:44 62° SSW 06:06:14 10° SE
Cosmos 2058 2.9 05:59:10 10° NNW 06:03:23 79° W 06:07:36 10° S
STARLINK-52 3.3 06:00:11 10° WNW 06:03:41 66° SSW 06:07:09 10° SE
STARLINK-63 3.9 05:59:46 10° W 06:03:42 50° NNW 06:07:39 10° ENE
STARLINK-35 3.9 06:01:19 10° W 06:05:15 50° NNW 06:09:12 10° ENE
STARLINK 3.8 06:02:03 10° W 06:05:45 49° NNW 06:09:28 10° ENE
Cosmos 1455 4.1 06:03:02 10° SSE 06:06:34 35° E 06:10:07 10° NNE
STARLINK-51 3.9 06:02:59 10° W 06:06:55 50° NNW 06:10:51 10° ENE
STARLINK-30 3.9 06:04:38 10° W 06:08:33 49° NNW 06:12:29 10° ENE
STARLINK-33 3.8 06:06:31 10° W 06:09:59 43° N 06:13:26 10° ENE
STARLINK-72 3.9 06:06:19 10° W 06:10:14 49° NNW 06:14:10 10° ENE
Meteor 2-1 Rocket 4.4 06:05:47 10° S 06:11:26 82° E 06:17:01 10° NNE
ATLAS 2AS CENTAUR R/B 3.4 06:07:43 10° WSW 06:15:23 46° NW 06:22:58 10° NE
